| time (UTC) | temp C | wind direction | speed KPH | gust KPH | rain 1hr cm | rain 24hr cm | rain mn cm | humidity % | barometer mb |
| 20260831115005 | 23 | 262 | 6.4 | 12.9 | 0.00 | 0.00 | 0.00 | 68 | 1014.3 |
| 20260831114007 | 23 | 279 | 4.8 | 9.7 | 0.00 | 0.00 | 0.00 | 66 | 1014.3 |
| 20260831113005 | 22 | 244 | 1.6 | 8.0 | 0.00 | 0.00 | 0.00 | 72 | 1014.3 |
| 20260831111006 | 22 | 274 | 0.0 | 3.2 | 0.00 | 0.00 | 0.00 | 72 | 1014.3 |
| 20260831110009 | 21 | 274 | 1.6 | 3.2 | 0.00 | 0.00 | 0.00 | 73 | 1014.1 |
| 20260831105005 | 21 | 274 | 1.6 | 4.8 | 0.00 | 0.00 | 0.00 | 72 | 1014.1 |
| 20260831104006 | 21 | 274 | 1.6 | 4.8 | 0.00 | 0.00 | 0.00 | 75 | 1014.2 |
| 20260831103005 | 21 | 274 | 1.6 | 3.2 | 0.00 | 0.00 | 0.00 | 72 | 1014.2 |
| 20260831102005 | 21 | 274 | 1.6 | 3.2 | 0.00 | 0.00 | 0.00 | 76 | 1014.2 |
| 20260831101006 | 21 | 274 | 3.2 | 4.8 | 0.00 | 0.00 | 0.00 | 78 | 1014.3 |
| 20260831100007 | 21 | 274 | 1.6 | 4.8 | 0.00 | 0.00 | 0.00 | 77 | 1014.5 |
| 20260831095007 | 21 | 274 | 3.2 | 6.4 | 0.00 | 0.00 | 0.00 | 72 | 1014.4 |
| 20260831094004 | 21 | 297 | 3.2 | 6.4 | 0.00 | 0.00 | 0.00 | 76 | 1014.6 |
| 20260831093007 | 21 | 360 | 1.6 | 4.8 | 0.00 | 0.00 | 0.00 | 72 | 1014.5 |
| 20260831092006 | 21 | 360 | 1.6 | 4.8 | 0.00 | 0.00 | 0.00 | 71 | 1014.5 |
| 20260831091004 | 21 | 182 | 1.6 | 3.2 | 0.00 | 0.00 | 0.00 | 73 | 1014.4 |
| 20260831090008 | 21 | 325 | 0.0 | 0.0 | 0.00 | 0.00 | 0.00 | 72 | 1014.3 |
| 20260831085004 | 21 | 325 | 3.2 | 6.4 | 0.00 | 0.00 | 0.00 | 76 | 1014.3 |
| 20260831084006 | 20 | 137 | 0.0 | 3.2 | 0.00 | 0.00 | 0.00 | 75 | 1014.2 |
| 20260831083005 | 20 | 137 | 3.2 | 8.0 | 0.00 | 0.00 | 0.00 | 74 | 1014.0 |
| 20260831082006 | 20 | 124 | 6.4 | 11.3 | 0.00 | 0.00 | 0.00 | 75 | 1013.9 |
| 20260831080010 | 21 | 159 | 1.6 | 4.8 | 0.00 | 0.00 | 0.00 | 72 | 1014.1 |
| 20260831075004 | 21 | 159 | 4.8 | 11.3 | 0.00 | 0.00 | 0.00 | 71 | 1014.0 |
| 20260831074006 | 21 | 140 | 6.4 | 11.3 | 0.00 | 0.00 | 0.00 | 70 | 1014.0 |
| 20260831072007 | 21 | 170 | 4.8 | 8.0 | 0.00 | 0.00 | 0.00 | 67 | 1014.2 |
| 20260831071006 | 21 | 157 | 4.8 | 8.0 | 0.00 | 0.00 | 0.00 | 69 | 1014.3 |
| 20260831070007 | 20 | 165 | 8.0 | 14.5 | 0.00 | 0.00 | 0.00 | 69 | 1014.1 |
| 20260831065007 | 20 | 140 | 4.8 | 9.7 | 0.00 | 0.00 | 0.00 | 69 | 1014.3 |
| 20260831064006 | 20 | 160 | 6.4 | 12.9 | 0.00 | 0.00 | 0.00 | 71 | 1014.5 |
| 20260831063006 | 20 | 182 | 6.4 | 11.3 | 0.00 | 0.00 | 0.00 | 72 | 1014.5 |
| 20260831062007 | 19 | 170 | 6.4 | 12.9 | 0.00 | 0.00 | 0.00 | 74 | 1014.5 |
| 20260831061007 | 18 | 178 | 0.0 | 6.4 | 0.00 | 0.00 | 0.00 | 80 | 1014.6 |
| 20260831060009 | 18 | 164 | 3.2 | 4.8 | 0.00 | 0.00 | 0.00 | 82 | 1014.5 |
| 20260831055008 | 17 | 165 | 1.6 | 3.2 | 0.00 | 0.00 | 0.00 | 83 | 1014.5 |
| 20260831054006 | 17 | 165 | 3.2 | 8.0 | 0.00 | 0.00 | 0.00 | 84 | 1014.5 |
| 20260831053008 | 16 | 165 | 0.0 | 3.2 | 0.00 | 0.00 | 0.00 | 87 | 1014.6 |
| 20260831052006 | 17 | 165 | 1.6 | 3.2 | 0.00 | 0.00 | 0.00 | 84 | 1014.6 |
| 20260831051008 | 16 | 165 | 1.6 | 4.8 | 0.00 | 0.00 | 0.00 | 86 | 1014.5 |
| 20260831050009 | 16 | 165 | 1.6 | 3.2 | 0.00 | 0.00 | 0.00 | 89 | 1014.4 |
| 20260831045006 | 15 | 165 | 0.0 | 1.6 | 0.00 | 0.00 | 0.00 | 88 | 1014.5 |
| 20260831044005 | 15 | 165 | 0.0 | 1.6 | 0.00 | 0.00 | 0.00 | 89 | 1014.5 |
| 20260831043007 | 15 | 165 | 0.0 | 0.0 | 0.00 | 0.00 | 0.00 | 89 | 1014.4 |
| 20260831042008 | 15 | 165 | 0.0 | 0.0 | 0.00 | 0.00 | 0.00 | 90 | 1014.5 |
| 20260831041005 | 14 | 165 | 0.0 | 0.0 | 0.00 | 0.00 | 0.00 | 89 | 1014.5 |
| 20260831040010 | 14 | 165 | 0.0 | 0.0 | 0.00 | 0.00 | 0.00 | 90 | 1014.6 |
| 20260831035005 | 14 | 165 | 0.0 | 0.0 | 0.00 | 0.00 | 0.00 | 90 | 1014.5 |
| 20260831034005 | 13 | 165 | 0.0 | 0.0 | 0.00 | 0.00 | 0.00 | 91 | 1014.6 |
| 20260831033005 | 14 | 165 | 0.0 | 3.2 | 0.00 | 0.00 | 0.00 | 90 | 1014.6 |
| 20260831032005 | 15 | 165 | 3.2 | 4.8 | 0.00 | 0.00 | 0.00 | 89 | 1014.6 |
| 20260831031006 | 14 | 165 | 1.6 | 3.2 | 0.00 | 0.00 | 0.00 | 90 | 1014.7 |
| 20260831030007 | 14 | 165 | 1.6 | 3.2 | 0.00 | 0.00 | 0.00 | 90 | 1014.7 |
| 20260831024005 | 13 | 165 | 0.0 | 0.0 | 0.00 | 0.00 | 0.00 | 91 | 1014.6 |
| 20260831023008 | 14 | 165 | 0.0 | 1.6 | 0.00 | 0.00 | 0.00 | 91 | 1014.8 |
| 20260831022005 | 14 | 165 | 3.2 | 4.8 | 0.00 | 0.00 | 0.00 | 90 | 1014.8 |
| 20260831021007 | 15 | 165 | 1.6 | 3.2 | 0.00 | 0.00 | 0.00 | 89 | 1014.9 |
| 20260831020008 | 15 | 165 | 0.0 | 0.0 | 0.00 | 0.00 | 0.00 | 89 | 1014.9 |
| 20260831015007 | 15 | 165 | 0.0 | 0.0 | 0.00 | 0.00 | 0.00 | 89 | 1014.9 |
| 20260831014005 | 14 | 165 | 0.0 | 0.0 | 0.00 | 0.00 | 0.00 | 90 | 1015.0 |
| 20260831013005 | 15 | 165 | 0.0 | 0.0 | 0.00 | 0.00 | 0.00 | 89 | 1014.9 |
| 20260831012005 | 15 | 165 | 1.6 | 3.2 | 0.00 | 0.00 | 0.00 | 89 | 1014.9 |
| 20260831010010 | 15 | 165 | 0.0 | 0.0 | 0.00 | 0.00 | 0.00 | 88 | 1014.9 |
| 20260831005006 | 15 | 165 | 0.0 | 0.0 | 0.00 | 0.00 | 0.00 | 89 | 1015.0 |
| 20260831004008 | 15 | 165 | 0.0 | 0.0 | 0.00 | 0.00 | 0.00 | 89 | 1015.0 |
| 20260831003005 | 15 | 165 | 0.0 | 1.6 | 0.00 | 0.00 | 0.00 | 88 | 1015.1 |
| 20260831002007 | 16 | 165 | 1.6 | 3.2 | 0.00 | 0.00 | 0.00 | 87 | 1015.2 |
| 20260831001005 | 16 | 165 | 0.0 | 0.0 | 0.00 | 0.00 | 0.00 | 88 | 1015.3 |
| 20260831000007 | 15 | 165 | 0.0 | 0.0 | 0.00 | 0.00 | 0.00 | 88 | 1015.4 |
| 20260830234005 | 16 | 165 | 0.0 | 1.6 | 0.00 | 0.00 | 0.00 | 86 | 1015.2 |
| 20260830233007 | 16 | 165 | 1.6 | 3.2 | 0.00 | 0.00 | 0.00 | 83 | 1015.3 |
| 20260830232003 | 16 | 165 | 0.0 | 0.0 | 0.00 | 0.00 | 0.00 | 86 | 1015.3 |
| 20260830231004 | 16 | 165 | 0.0 | 0.0 | 0.00 | 0.00 | 0.00 | 84 | 1015.3 |
| 20260830230007 | 16 | 165 | 0.0 | 0.0 | 0.00 | 0.00 | 0.00 | 83 | 1015.2 |
| 20260830225002 | 16 | 165 | 0.0 | 0.0 | 0.00 | 0.00 | 0.00 | 84 | 1015.2 |
| 20260830224006 | 16 | 165 | 0.0 | 1.6 | 0.00 | 0.00 | 0.00 | 85 | 1015.2 |
| 20260830223005 | 16 | 165 | 1.6 | 3.2 | 0.00 | 0.00 | 0.00 | 84 | 1015.3 |
| 20260830222003 | 17 | 165 | 1.6 | 4.8 | 0.00 | 0.00 | 0.00 | 82 | 1015.2 |
| 20260830221005 | 17 | 165 | 0.0 | 0.0 | 0.00 | 0.00 | 0.00 | 82 | 1015.3 |
| 20260830215004 | 17 | 165 | 3.2 | 4.8 | 0.00 | 0.00 | 0.00 | 79 | 1015.3 |
| 20260830214006 | 17 | 165 | 3.2 | 4.8 | 0.00 | 0.00 | 0.00 | 79 | 1015.2 |
| 20260830213005 | 18 | 165 | 3.2 | 4.8 | 0.00 | 0.00 | 0.00 | 78 | 1015.3 |
| 20260830212006 | 18 | 165 | 4.8 | 8.0 | 0.00 | 0.00 | 0.00 | 77 | 1015.2 |
| 20260830211004 | 17 | 128 | 1.6 | 4.8 | 0.00 | 0.00 | 0.00 | 78 | 1015.2 |
| 20260830205004 | 18 | 128 | 4.8 | 6.4 | 0.00 | 0.00 | 0.00 | 74 | 1015.2 |
| 20260830204004 | 18 | 119 | 4.8 | 6.4 | 0.00 | 0.00 | 0.00 | 76 | 1015.2 |
| 20260830203006 | 20 | 279 | 4.8 | 11.3 | 0.00 | 0.00 | 0.00 | 70 | 1015.2 |
| 20260830202006 | 19 | 315 | 9.7 | 14.5 | 0.00 | 0.00 | 0.00 | 73 | 1015.1 |
| 20260830201003 | 18 | 332 | 1.6 | 8.0 | 0.00 | 0.00 | 0.00 | 78 | 1014.8 |
| 20260830200006 | 19 | 183 | 1.6 | 3.2 | 0.00 | 0.00 | 0.00 | 74 | 1014.7 |
| 20260830195006 | 19 | 183 | 1.6 | 4.8 | 0.00 | 0.00 | 0.00 | 75 | 1014.7 |
| 20260830194003 | 19 | 183 | 0.0 | 1.6 | 0.00 | 0.00 | 0.00 | 74 | 1014.7 |
| 20260830193004 | 20 | 183 | 1.6 | 4.8 | 0.00 | 0.00 | 0.00 | 67 | 1014.8 |
| 20260830192005 | 21 | 183 | 3.2 | 4.8 | 0.00 | 0.00 | 0.00 | 65 | 1014.7 |
| 20260830190006 | 21 | 184 | 4.8 | 8.0 | 0.00 | 0.00 | 0.00 | 63 | 1014.7 |
| 20260830185006 | 21 | 172 | 4.8 | 6.4 | 0.00 | 0.00 | 0.00 | 65 | 1014.7 |
| 20260830184003 | 21 | 172 | 3.2 | 6.4 | 0.00 | 0.00 | 0.00 | 63 | 1014.7 |
| 20260830182004 | 22 | 172 | 3.2 | 4.8 | 0.00 | 0.00 | 0.00 | 61 | 1014.6 |
| 20260830181004 | 22 | 172 | 3.2 | 6.4 | 0.00 | 0.00 | 0.00 | 58 | 1014.6 |
| 20260830180008 | 23 | 172 | 6.4 | 9.7 | 0.00 | 0.00 | 0.00 | 57 | 1014.4 |
| 20260830175003 | 23 | 175 | 8.0 | 11.3 | 0.00 | 0.00 | 0.00 | 57 | 1014.3 |
| 20260830174003 | 23 | 230 | 6.4 | 11.3 | 0.00 | 0.00 | 0.00 | 55 | 1014.3 |
| 20260830173004 | 24 | 197 | 8.0 | 14.5 | 0.00 | 0.00 | 0.00 | 54 | 1014.2 |
| 20260830172004 | 24 | 188 | 9.7 | 16.1 | 0.00 | 0.00 | 0.00 | 54 | 1014.1 |
| 20260830171003 | 25 | 192 | 9.7 | 16.1 | 0.00 | 0.00 | 0.00 | 54 | 1014.1 |
| 20260830170006 | 25 | 169 | 8.0 | 14.5 | 0.00 | 0.00 | 0.00 | 53 | 1014.0 |
| 20260830165006 | 25 | 168 | 9.7 | 16.1 | 0.00 | 0.00 | 0.00 | 52 | 1014.0 |
| 20260830164003 | 26 | 166 | 11.3 | 25.7 | 0.00 | 0.00 | 0.00 | 51 | 1014.0 |
| 20260830163005 | 26 | 199 | 11.3 | 27.4 | 0.00 | 0.00 | 0.00 | 50 | 1014.0 |
| 20260830162003 | 26 | 231 | 9.7 | 20.9 | 0.00 | 0.00 | 0.00 | 49 | 1014.0 |
| 20260830160006 | 26 | 185 | 11.3 | 19.3 | 0.00 | 0.00 | 0.00 | 49 | 1014.1 |
| 20260830155004 | 26 | 190 | 12.9 | 22.5 | 0.00 | 0.00 | 0.00 | 49 | 1014.1 |
| 20260830154003 | 27 | 140 | 12.9 | 22.5 | 0.00 | 0.00 | 0.00 | 48 | 1014.1 |
| 20260830153005 | 26 | 165 | 11.3 | 22.5 | 0.00 | 0.00 | 0.00 | 51 | 1014.2 |
| 20260830151003 | 26 | 262 | 8.0 | 14.5 | 0.00 | 0.00 | 0.00 | 52 | 1014.3 |
| 20260830150009 | 26 | 150 | 11.3 | 19.3 | 0.00 | 0.00 | 0.00 | 52 | 1014.3 |
| 20260830145005 | 26 | 198 | 12.9 | 20.9 | 0.00 | 0.00 | 0.00 | 51 | 1014.4 |
| 20260830144005 | 26 | 218 | 11.3 | 20.9 | 0.00 | 0.00 | 0.00 | 51 | 1014.4 |
| 20260830143005 | 26 | 210 | 12.9 | 24.1 | 0.00 | 0.00 | 0.00 | 51 | 1014.5 |
| 20260830141005 | 27 | 229 | 12.9 | 22.5 | 0.00 | 0.00 | 0.00 | 48 | 1014.7 |
| 20260830140007 | 26 | 210 | 17.7 | 30.6 | 0.00 | 0.00 | 0.00 | 48 | 1014.7 |
| 20260830135005 | 27 | 163 | 12.9 | 29.0 | 0.00 | 0.00 | 0.00 | 48 | 1014.7 |
| 20260830134007 | 27 | 226 | 12.9 | 30.6 | 0.00 | 0.00 | 0.00 | 47 | 1014.7 |
| 20260830132006 | 26 | 243 | 16.1 | 25.7 | 0.00 | 0.00 | 0.00 | 49 | 1014.9 |
| 20260830131005 | 26 | 196 | 11.3 | 22.5 | 0.00 | 0.00 | 0.00 | 49 | 1015.0 |
| 20260830130007 | 27 | 192 | 16.1 | 32.2 | 0.00 | 0.00 | 0.00 | 48 | 1014.9 |
| 20260830124004 | 27 | 240 | 14.5 | 22.5 | 0.00 | 0.00 | 0.00 | 47 | 1015.0 |
| 20260830122004 | 27 | 245 | 12.9 | 29.0 | 0.00 | 0.00 | 0.00 | 46 | 1015.2 |
| 20260830121005 | 26 | 188 | 12.9 | 25.7 | 0.00 | 0.00 | 0.00 | 48 | 1015.2 |